Weather reports worldwide

Advertisment
Edinburgh/Gogarbank, United Kingdom (3166): temperature & dewpoint: 04.07.2020 04:00:00 - 10.07.2020 04:00:00 (BST)Edinburgh/Gogarbank, United Kingdom (3166): temperature -20cm & temperature -100cm: 04.07.2020 04:00:00 - 10.07.2020 04:00:00 (BST)Edinburgh/Gogarbank, United Kingdom (3166): wind speed & gusts: 04.07.2020 04:00:00 - 10.07.2020 04:00:00 (BST)Edinburgh/Gogarbank, United Kingdom (3166): wind direction: 04.07.2020 04:00:00 - 10.07.2020 04:00:00 (BST)Edinburgh/Gogarbank, United Kingdom (3166): reduced air pressure: 04.07.2020 04:00:00 - 10.07.2020 04:00:00 (BST)Edinburgh/Gogarbank, United Kingdom (3166): visibility: 04.07.2020 04:00:00 - 10.07.2020 04:00:00 (BST)Edinburgh/Gogarbank, United Kingdom (3166): sunshine duration: 04.07.2020 04:00:00 - 10.07.2020 04:00:00 (BST)Edinburgh/Gogarbank, United Kingdom (3166): precipitation: 04.07.2020 04:00:00 - 10.07.2020 04:00:00 (BST)
Date & Time tt [°C] td [°C] tt -20cm [°C] tt -100cm [°C] ff [km/h] ff [kn] fx [km/h] fx [kn] dd ppp [hPa] vv [km] sd [min] rr [mm]
10.07.2020 04:00:00 10,4 9,8 - - 4 2 - - WSW 1014,1 30 0 0,0
10.07.2020 03:00:00 10,4 9,3 - - 4 2 - - SSW 1014,0 40 0 0,6
10.07.2020 02:00:00 10,6 9,2 - - 11 6 - - SW 1013,9 45 0 0,0
10.07.2020 01:00:00 11,1 11,0 - - 4 2 - - SSW 1013,8 6 - 0,0
10.07.2020 00:00:00 10,9 10,6 - - 4 2 - - NW 1013,8 3,8 0 0,0
09.07.2020 23:00:00 11,5 11,0 - - 0 0 - - N 1013,8 12 0 0,6
09.07.2020 22:00:00 11,8 11,0 - - 2 1 - - NNE 1013,8 45 0 0,0
09.07.2020 21:00:00 12,5 11,7 - - 5 3 - - NNE 1013,5 45 0 0,0
09.07.2020 20:00:00 12,7 11,3 - - 5 3 - - SSE 1013,3 40 6 0,0
09.07.2020 19:00:00 12,3 11,4 - - 8 4 - - E 1013,4 40 0 2,0
09.07.2020 18:00:00 12,4 11,5 - - 11 6 - - NW 1013,9 2,6 0 2,8
09.07.2020 17:00:00 13,2 10,7 - - 18 10 - - NNE 1013,5 12 6 0,4
09.07.2020 16:00:00 17,9 10,5 - - 13 7 - - NNE 1012,9 30 36 0,0
09.07.2020 15:00:00 18,2 8,4 - - 9 5 - - S 1013,1 50 30 0,0
09.07.2020 14:00:00 17,7 8,7 - - 8 4 - - N 1013,7 28 24 0,0
09.07.2020 13:00:00 17,5 8,0 - - 4 2 - - SSW 1013,9 40 30 0,0
09.07.2020 12:00:00 17,3 9,9 - - 8 4 - - NNE 1013,9 45 54 0,0
09.07.2020 11:00:00 15,8 9,1 - - 9 5 - - NNW 1013,9 45 54 0,0
09.07.2020 10:00:00 15,3 9,7 14,7 13,4 11 6 - - N 1013,7 45 60 0,0
09.07.2020 09:00:00 15,1 8,7 - - 8 4 - - NNE 1013,9 45 36 0,0
09.07.2020 08:00:00 13,1 9,6 - - 4 2 - - NE 1013,7 45 6 0,0
09.07.2020 07:00:00 11,9 10,3 - - 4 2 - - SE 1013,4 50 6 0,0
09.07.2020 06:00:00 10,6 10,2 - - 4 2 - - NE 1013,4 35 0 0,0
09.07.2020 05:00:00 10,6 10,2 - - 2 1 - - W 1013,3 17 0 0,0
09.07.2020 04:00:00 11,2 10,7 - - 4 2 - - ENE 1013,2 21 0 0,0
09.07.2020 03:00:00 11,2 10,6 - - 4 2 - - W 1013,3 23 0 0,0
09.07.2020 02:00:00 11,3 10,2 - - 0 0 - - N 1013,4 35 0 0,0
09.07.2020 01:00:00 12,2 9,7 - - 5 3 - - S 1013,7 50 - 0,0
09.07.2020 00:00:00 12,1 10,2 - - 5 3 - - SW 1013,9 50 0 0,0
08.07.2020 23:00:00 12,1 11,4 - - 0 0 - - N 1014,0 28 0 0,0
08.07.2020 22:00:00 12,5 11,3 - - 2 1 - - ESE 1013,9 50 0 0,0
08.07.2020 21:00:00 12,6 11,5 - - 5 3 - - NE 1013,9 16 0 0,0
08.07.2020 20:00:00 13,2 11,5 - - 9 5 - - NNE 1014,3 45 0 0,0
08.07.2020 19:00:00 14,1 11,6 - - 9 5 - - NE 1014,5 45 0 0,0
08.07.2020 18:00:00 13,4 12,0 - - 8 4 - - ENE 1014,8 35 0 0,4
08.07.2020 17:00:00 13,8 10,7 - - 9 5 - - E 1015,1 21 0 0,0
08.07.2020 16:00:00 13,9 9,6 - - 16 9 - - ENE 1015,4 40 0 0,0
08.07.2020 15:00:00 14,5 9,3 - - 15 8 - - NE 1015,8 35 0 0,0
08.07.2020 14:00:00 15,0 9,5 - - 16 9 - - NE 1016,0 35 0 0,0
08.07.2020 13:00:00 14,4 9,4 - - 15 8 - - NE 1016,2 45 30 0,0
08.07.2020 12:00:00 15,0 10,1 - - 15 8 - - NE 1016,2 30 42 0,0
08.07.2020 11:00:00 13,3 9,4 - - 13 7 - - NE 1016,5 30 0 0,0
08.07.2020 10:00:00 12,6 9,5 14,7 13,4 13 7 - - E 1016,4 35 12 0,0
08.07.2020 09:00:00 12,2 10,1 - - 11 6 - - E 1016,3 30 6 0,0
08.07.2020 08:00:00 10,6 9,2 - - 9 5 - - E 1016,2 30 0 0,0
08.07.2020 07:00:00 10,5 9,8 - - 8 4 - - E 1015,9 15 0 0,0
08.07.2020 06:00:00 10,4 9,8 - - 11 6 - - E 1015,4 10 0 0,8
08.07.2020 05:00:00 10,8 9,5 - - 15 8 - - ENE 1015,2 12 0 0,0
08.07.2020 04:00:00 11,3 9,9 - - 15 8 - - ENE 1015,1 27 0 0,0
08.07.2020 03:00:00 11,6 10,2 - - 11 6 - - NE 1015,2 23 0 0,0
08.07.2020 02:00:00 11,7 10,4 - - 15 8 - - NE 1015,4 23 0 0,0
08.07.2020 01:00:00 11,8 10,4 - - 11 6 - - NE 1015,3 28 - 0,0
08.07.2020 00:00:00 11,8 10,4 - - 9 5 - - NE 1015,1 26 0 0,0
07.07.2020 23:00:00 12,1 10,1 - - 9 5 - - NE 1015,0 45 0 0,0
07.07.2020 22:00:00 12,7 10,6 - - 5 3 - - NE 1014,7 40 0 0,0
07.07.2020 21:00:00 13,6 9,5 - - 8 4 - - WNW 1014,2 50 0 0,0
07.07.2020 20:00:00 14,6 7,9 - - 5 3 - - WSW 1013,9 40 0 0,0
07.07.2020 19:00:00 15,9 9,1 - - 5 3 - - NW 1014,0 50 0 0,0
07.07.2020 18:00:00 16,7 8,7 - - 4 2 - - NNE 1014,1 50 18 0,0
07.07.2020 17:00:00 17,4 8,9 - - 11 6 - - W 1014,5 40 54 0,0
07.07.2020 16:00:00 16,8 8,6 - - 13 7 - - W 1014,9 40 24 0,0
07.07.2020 15:00:00 14,6 8,0 - - 16 9 - - W 1015,4 40 0 0,0
07.07.2020 14:00:00 15,2 8,6 - - 13 7 - - W 1015,5 45 0 0,0
07.07.2020 13:00:00 14,9 9,3 - - 15 8 - - W 1015,8 50 0 0,0
07.07.2020 12:00:00 13,5 8,2 - - 15 8 - - W 1016,0 40 0 0,0
07.07.2020 11:00:00 12,8 8,6 - - 16 9 - - W 1016,4 45 0 0,0
07.07.2020 10:00:00 12,0 9,1 14,5 13,5 15 8 - - WSW 1016,4 45 0 0,0
07.07.2020 09:00:00 12,2 9,2 - - 15 8 - - WSW 1016,4 40 0 0,0
07.07.2020 08:00:00 11,7 8,8 - - 15 8 - - WSW 1016,5 30 0 0,0
07.07.2020 07:00:00 11,4 8,8 - - 15 8 - - WSW 1016,8 30 0 0,0
07.07.2020 06:00:00 10,9 8,8 - - 16 9 - - WSW 1016,9 35 0 0,0
07.07.2020 05:00:00 10,1 8,3 - - 13 7 - - WSW 1017,3 50 0 0,0
07.07.2020 04:00:00 9,9 7,8 - - 18 10 - - WSW 1017,5 50 0 0,0
07.07.2020 03:00:00 10,0 7,7 - - 21 11 - - WSW 1017,6 45 0 0,0
07.07.2020 02:00:00 10,5 8,3 - - 13 7 - - WSW 1018,2 35 0 0,0
07.07.2020 01:00:00 10,6 8,3 - - 18 10 - - WSW 1018,3 30 - 0,0
07.07.2020 00:00:00 10,4 7,7 - - 16 9 - - WSW 1018,6 35 0 0,0
06.07.2020 23:00:00 10,6 6,8 - - 18 10 - - WSW 1018,7 35 0 0,0
06.07.2020 22:00:00 11,5 6,4 - - 21 11 - - W 1018,7 45 6 0,0
06.07.2020 21:00:00 12,6 6,3 - - 24 13 - - W 1018,5 40 0 0,0
06.07.2020 20:00:00 13,5 6,2 - - 21 11 - - W 1018,3 45 12 0,0
06.07.2020 19:00:00 14,0 6,7 - - 26 14 - - W 1018,2 45 0 0,0
06.07.2020 18:00:00 14,9 6,8 - - 24 13 46 25 W 1018,1 45 12 0,0
06.07.2020 17:00:00 15,4 7,0 - - 28 15 - - W 1018,0 35 30 0,0
06.07.2020 16:00:00 17,3 7,8 - - 28 15 - - W 1017,6 29 42 0,0
06.07.2020 15:00:00 16,2 6,7 - - 22 12 - - W 1017,3 45 12 0,0
06.07.2020 14:00:00 16,6 6,5 - - 21 11 - - WNW 1016,9 35 12 0,0
06.07.2020 13:00:00 15,9 7,4 - - 16 9 - - WNW 1016,5 50 6 0,0
06.07.2020 12:00:00 16,7 8,5 - - 18 10 - - WNW 1015,6 50 24 0,0
06.07.2020 11:00:00 14,4 7,6 - - 18 10 - - WNW 1015,1 50 6 0,0
06.07.2020 10:00:00 14,0 8,6 14,7 13,5 13 7 - - W 1014,2 50 18 0,0
06.07.2020 09:00:00 13,3 8,2 - - 16 9 - - W 1013,4 45 6 0,0
06.07.2020 08:00:00 12,2 8,7 - - 15 8 - - WSW 1012,3 45 24 0,0
06.07.2020 07:00:00 11,2 9,1 - - 16 9 - - WSW 1011,0 40 24 0,0
06.07.2020 06:00:00 10,3 9,3 - - 11 6 - - WSW 1009,4 23 0 0,0
06.07.2020 05:00:00 9,9 9,0 - - 13 7 - - WSW 1008,1 21 0 0,0
06.07.2020 04:00:00 10,3 9,1 - - 15 8 - - W 1007,0 30 0 0,0
06.07.2020 03:00:00 10,6 8,8 - - 22 12 - - WSW 1006,2 21 0 0,0
06.07.2020 02:00:00 10,9 8,3 - - 21 11 - - W 1005,7 28 0 0,0
06.07.2020 01:00:00 10,4 8,1 - - 21 11 - - WSW 1005,1 28 - 0,0
06.07.2020 00:00:00 10,7 8,2 - - 22 12 - - W 1004,2 45 0 0,0
05.07.2020 23:00:00 10,5 8,2 - - 22 12 - - WSW 1003,4 50 0 0,0
05.07.2020 22:00:00 11,1 8,2 - - 26 14 - - W 1002,2 40 18 0,0
05.07.2020 21:00:00 12,0 9,0 - - 21 11 - - W 1001,1 30 36 0,0
05.07.2020 20:00:00 11,9 9,2 - - 22 12 - - W 1000,0 45 36 0,0
05.07.2020 19:00:00 12,2 11,2 - - 15 8 - - WSW 999,5 17 6 0,8
05.07.2020 18:00:00 12,3 9,4 - - 21 11 - - WSW 999,3 40 12 0,6
05.07.2020 17:00:00 10,9 7,2 - - 34 18 57 31 W 999,5 7 24 0,4
05.07.2020 16:00:00 14,2 10,4 - - 26 14 50 27 WSW 998,9 20 18 0,2
05.07.2020 15:00:00 13,6 9,3 - - 34 18 54 29 WSW 999,1 30 30 0,0
05.07.2020 14:00:00 14,2 9,6 - - 34 18 52 28 WSW 999,0 30 42 0,0
05.07.2020 13:00:00 11,9 10,9 - - 24 13 52 28 WSW 999,4 40 12 2,0
05.07.2020 12:00:00 12,1 9,8 - - 29 16 59 32 W 999,2 5 18 0,6
05.07.2020 11:00:00 14,7 7,9 - - 39 21 68 37 WSW 998,2 30 42 0,0
05.07.2020 10:00:00 13,8 8,4 14,7 13,5 35 19 57 31 WSW 998,2 45 42 0,0
05.07.2020 09:00:00 12,8 8,8 - - 35 19 55 30 WSW 997,7 45 36 0,0
05.07.2020 08:00:00 13,2 9,3 - - 31 17 54 29 W 996,3 45 48 0,0
05.07.2020 07:00:00 13,9 10,4 - - 31 17 52 28 WSW 995,3 45 54 0,0
05.07.2020 06:00:00 12,6 10,1 - - 31 17 63 34 WSW 993,7 50 0 0,0
05.07.2020 05:00:00 13,2 10,1 - - 37 20 70 38 WSW 992,2 45 0 0,0
05.07.2020 04:00:00 13,6 11,4 - - 28 15 54 29 WSW 992,0 45 0 0,0
05.07.2020 03:00:00 15,1 13,2 - - 31 17 61 33 WSW 991,0 50 0 0,2
05.07.2020 02:00:00 15,5 14,4 - - 26 14 50 27 WSW 990,5 5 0 0,8
05.07.2020 01:00:00 15,6 14,4 - - 24 13 - - SW 991,3 13 - 0,6
05.07.2020 00:00:00 15,1 14,4 - - 21 11 - - SW 992,3 4,3 0 2,4
04.07.2020 23:00:00 14,7 13,6 - - 9 5 - - S 993,6 6 0 0,4
04.07.2020 22:00:00 14,1 13,0 - - 8 4 - - ESE 996,1 16 0 0,4
04.07.2020 21:00:00 14,3 12,4 - - 0 0 - - N 997,8 40 0 0,0
04.07.2020 20:00:00 14,9 10,9 - - 5 3 - - SW 999,7 40 0 0,0
04.07.2020 19:00:00 15,3 10,9 - - 11 6 - - WSW 1001,1 50 0 0,0
04.07.2020 18:00:00 14,8 10,8 - - 11 6 - - W 1002,0 50 0 0,0
04.07.2020 17:00:00 15,0 10,8 - - 13 7 - - WSW 1002,5 50 0 0,0
04.07.2020 16:00:00 15,2 11,5 - - 18 10 - - W 1003,0 45 6 0,0
04.07.2020 15:00:00 14,1 11,9 - - 15 8 - - W 1003,4 30 0 0,0
04.07.2020 14:00:00 14,2 11,7 - - 15 8 - - W 1003,5 45 0 0,0
04.07.2020 13:00:00 13,2 12,0 - - 9 5 - - W 1003,4 9 0 0,2
04.07.2020 12:00:00 12,6 10,8 - - 11 6 - - W 1003,7 7 0 0,2
04.07.2020 11:00:00 13,1 11,0 - - 13 7 - - W 1003,4 21 0 0,0
04.07.2020 10:00:00 13,7 9,8 14,7 13,5 13 7 - - W 1003,1 45 0 0,0
04.07.2020 09:00:00 13,2 10,1 - - 9 5 - - W 1003,2 40 30 0,0
04.07.2020 08:00:00 11,8 9,9 - - 11 6 - - WSW 1003,8 30 12 0,0
04.07.2020 07:00:00 11,2 9,9 - - 5 3 - - SW 1003,1 30 0 0,0
04.07.2020 06:00:00 10,1 9,4 - - 4 2 - - W 1003,6 30 0 0,0
04.07.2020 05:00:00 10,3 9,4 - - 4 2 - - WSW 1003,5 30 0 0,0
04.07.2020 04:00:00 10,2 9,1 - - 5 3 - - SW 1003,3 40 0 0,0

tt = temperature
td = dewpoint
tt -20cm = temperature -20cm
tt -100cm = temperature -100cm
ff = wind speed
fx = gusts
dd = wind direction
ppp = reduced air pressure
vv = visibility
sd = sunshine duration
rr = precipitation

Next stations